Location: State Camp
(41.2367°N, 77.7828°W)
Time: 11:15:59
(UTC-04:00)

Hubble Space Telescope - Visible Passes

Search period start: 29 March 2017 00:00
Search period end: 08 April 2017 00:00
Orbit: 538 x 542 km, 28.5° (Epoch: 27 March)

Date Brightness Start Highest point End Pass type
(mag) Time Alt. Az. Time Alt. Az. Time Alt. Az.
29 Mar 3.4 04:56:01 10° SSE 04:56:01 10° SSE 04:56:10 10° SSE visible
30 Mar 3.0 06:23:16 10° SW 06:25:18 13° S 06:27:19 10° SSE visible
31 Mar 3.0 06:13:19 10° SSW 06:15:09 13° S 06:16:59 10° SSE visible
01 Apr 3.0 06:03:30 10° SSW 06:05:00 12° S 06:06:31 10° SSE visible
02 Apr 3.0 05:53:58 10° SSW 05:54:52 11° SSW 05:55:44 10° S visible
